sat.trackr.live / text

‹ back to catalog

STARLINK-32376

NORAD 61707 · 2024-196A

PAYLOAD ACTIVE UNKNOWN

§ Identity

Operator
Country
US
Launch date
2024-10-30
Launch site
AFETR
Launch vehicle
Mass (kg)
RCS (m²)

Purposes: comms

External: N2YO · Heavens-Above · Gunter

§ Orbital elements

Epoch: 2026-05-25T04:32:17.565216Z

Period
94.11 min
Inclination
53.1603°
Eccentricity
0.0001260
Mean motion
15.30191506 rev/d
Perigee alt
474.4 km
Apogee alt
476.1 km
Semi-major
6,853.4 km
B*
1.6370e-5
RAAN
105.6817°
Arg perigee
96.3539°
Mean anomaly
263.7605°
Rev number
8,888

§ Raw data

STARLINK-323761 61707U 24196A   26145.18909219  .00000126  00000+0  16370-4 0  99992 61707  53.1603 105.6817 0001260  96.3539 263.7605 15.30191506 88885

JSON: /api/v1/satellites/61707 · /tle

For live sub-satellite position, see the globe view (requires WebGL).

§ Visibility from observer

Set your observer location to see the next 7 days of passes ≥ 10°. The values pass through the URL so the page stays shareable.

No JS? Fill the form by hand. The geolocation button needs JavaScript.